This is the latest recevied weather packets stored in our database for station/object EA1IC-12. If no packets are shown the sender has not sent any weather packets the latest 1 day(s).
| Time | Temp. | Humidity | Pressure | Rain* | Wind** | Luminosity | Snow |
|---|---|---|---|---|---|---|---|
| 1778423204 | 24.44° C | 48% | 916.7 hPa | - | - | - | - |
| 1778421704 | 24.44° C | 48% | 917 hPa | - | - | - | - |
| 1778421404 | 25° C | 48% | 916.9 hPa | - | - | - | - |
| 1778421104 | 25° C | 47% | 917.2 hPa | - | - | - | - |
| 1778420804 | 25° C | 48% | 917.2 hPa | - | - | - | - |
| 1778420504 | 25° C | 47% | 917 hPa | - | - | - | - |
| 1778416566 | 27.22° C | 37% | 916.2 hPa | - | - | - | - |
| 1778415966 | 27.22° C | 36% | 908 hPa | - | - | - | - |
| 1778415666 | 26.67° C | 37% | 905.7 hPa | - | - | - | - |
| 1778414451 | 26.67° C | 37% | 913.4 hPa | - | - | - | - |
| 1778414151 | 27.22° C | 37% | 913.7 hPa | - | - | - | - |
| 1778412923 | 26.67° C | 37% | 901.9 hPa | - | - | - | - |
| 1778412318 | 25.56° C | 37% | 886.5 hPa | - | - | - | - |
| 1778410517 | 25.56° C | 39% | 851.5 hPa | - | - | - | - |
| 1778409617 | 25.56° C | 40% | 851.4 hPa | - | - | - | - |
| 1778409317 | 25.56° C | 40% | 851.6 hPa | - | - | - | - |
| 1778409017 | 26.11° C | 40% | 851.5 hPa | - | - | - | - |
| 1778408717 | 26.11° C | 40% | 851.5 hPa | - | - | - | - |
| 1778408417 | 26.11° C | 40% | 851.6 hPa | - | - | - | - |
| 1778408117 | 26.67° C | 39% | 852.2 hPa | - | - | - | - |
| 1778407817 | 26.67° C | 40% | 865.8 hPa | - | - | - | - |
| 1778406608 | 26.11° C | 41% | 880.4 hPa | - | - | - | - |
| 1778406008 | 26.67° C | 41% | 906.8 hPa | - | - | - | - |
| 1778405402 | 26.11° C | 42% | 913.7 hPa | - | - | - | - |
| 1778405102 | 26.11° C | 42% | 908 hPa | - | - | - | - |
* Rain since midnight (hover to see other rain measurements)
** Current wind speed in m/s (hover to see current wind gust speed)